Location: Ward Pound Ridge Reservation
(41.2500°N, 73.6000°W)
Time: 21:24:36
(UTC-05:00)

N. Korean satellite - Pass Details

Date: 14 October 2017
Orbit: 461 x 513 km, 97.2° (Epoch: 09 December)

Event Time Altitude Azimuth Distance (km) Brightness Sun altitude
Rises 19:24:55 0° 185° (S) 2,548 10.3 -14.0°
Reaches altitude 10° 19:27:06 10° 195° (SSW) 1,663 9.4 -14.4°
Maximum altitude 19:30:24 35° 262° (W) 796 8.3 -15.0°
Drops below altitude 10° 19:33:41 10° 330° (NNW) 1,649 9.7 -15.6°
Sets 19:35:51 0° 339° (NNW) 2,524 10.5 -16.0°
